San Jose, Costa Rica

8:32 PM CST on August 28, 2016 (GMT -0600)
Juan Santamaria International

Weather History for MROC - March, 2013

Change the Weather History Date:

Friday, March 22, 2013

  Actual Average Record
Temperature  
Mean Temperature 74 °F -  
Max Temperature 86 °F 83 °F 91 °F (1998)
Min Temperature 62 °F 65 °F 62 °F (2013)
Cooling Degree Days 9    
Growing Degree Days 24 (Base 50)    
Moisture  
Dew Point 64 °F    
Average Humidity 73    
Maximum Humidity 100    
Minimum Humidity 30    
Precipitation  
Precipitation 0.00 in 0.08 in - ()
Sea Level Pressure  
Sea Level Pressure 29.97 in    
Wind  
Wind Speed 6 mph ()    
Max Wind Speed 14 mph    
Max Gust Speed -    
Visibility 8.1 miles    
Events Fog    
Averages and records for this station are not official NWS values.
T = Trace of Precipitation, MM = Missing Value Source: Averaged Metar Reports

Daily Weather History Graph

Daily Weather History Graph

Search for Another Location

Airport or City:

Trip Planner

Search our weather history database for the weather conditions in past years. The results will help you decide how hot, cold, wet, or windy it might be!

Date:

Astronomy

Mar. 22, 2013 Rise Set
Actual Time 5:39 AM CST 5:47 PM CST
Civil Twilight 5:18 AM CST 6:08 PM CST
Nautical Twilight 4:54 AM CST 6:32 PM CST
Astronomical Twilight 4:29 AM CST 6:57 PM CST
Moon 1:56 PM CST (3/22) 1:53 AM CST (3/22)
Length of Visible Light 12h 49m
Length of Day
12h 07m
Waxing Gibbous, 78% of the Moon is Illuminated
Mar 22
Waxing Gibbous
Mar 27
Full
Apr 2
Last Quarter
Apr 10
New
Apr 18
First Quarter

Hourly Weather History & Observations

Time (CST) Temp. Heat Index Dew Point Humidity Pressure Visibility Wind Dir Wind Speed Gust Speed Precip Events Conditions
12:00 AM 66 °F - 63 °F 85% 29.81 in 12 mi East 6.9 mph - -   Scattered Clouds
12:00 AM 66.2 °F - 62.6 °F 88% 30.02 in 6.2 mi East 6.9 mph - N/A   Partly Cloudy
2:00 AM 64.4 °F - 60.8 °F 88% 29.97 in - ENE 3.5 mph - N/A   Clear
3:00 AM 64.4 °F - 60.8 °F 88% 29.98 in - East 3.5 mph - N/A   Clear
4:00 AM 62.6 °F - 59.0 °F 88% 29.98 in - East 5.8 mph - N/A   Clear
5:00 AM 62.6 °F - 59.0 °F 88% 30.00 in - East 4.6 mph - N/A   Clear
6:00 AM 64 °F - 59 °F 79% 29.88 in 12 mi East 4.6 mph - -   Clear
6:00 AM 64.4 °F - 59.0 °F 83% 30.01 in - East 4.6 mph - N/A   Clear
7:00 AM 68.0 °F - 59.0 °F 73% 30.02 in - East 6.9 mph - N/A   Clear
8:00 AM 73.4 °F - 60.8 °F 65% 30.04 in - ESE 5.8 mph - N/A   Clear
9:00 AM 81 °F - 59 °F 37% 29.86 in 12 mi ESE 5.8 mph - -   Clear
9:00 AM 80.6 °F 81.1 °F 59.0 °F 48% 30.04 in - ESE 5.8 mph - N/A   Clear
10:00 AM 82.4 °F 82.5 °F 59.0 °F 45% 30.04 in - SW 5.8 mph - N/A   Clear
11:00 AM 84.2 °F 83.8 °F 59.0 °F 42% 30.02 in 6.2 mi WSW 9.2 mph - N/A   Mostly Cloudy
12:00 PM 84 °F - 57 °F 30% 29.82 in 12 mi WSW 11.5 mph - -   Scattered Clouds
12:00 PM 84.2 °F 83.8 °F 59.0 °F 42% 30.00 in 6.2 mi WSW 11.5 mph - N/A   Mostly Cloudy
1:00 PM 84.2 °F 85.6 °F 64.4 °F 51% 29.99 in 6.2 mi WSW 11.5 mph - N/A   Mostly Cloudy
2:00 PM 82.4 °F 84.6 °F 66.2 °F 58% 29.97 in 6.2 mi West 13.8 mph - N/A   Mostly Cloudy
3:00 PM 82 °F - 68 °F 54% 29.79 in 12 mi WSW 11.5 mph - -   Scattered Clouds
3:00 PM 82.4 °F 85.4 °F 68.0 °F 62% 29.96 in 6.2 mi WSW 11.5 mph - N/A   Mostly Cloudy
4:00 PM 80.6 °F 83.9 °F 69.8 °F 70% 29.96 in 6.2 mi WSW 12.7 mph - N/A   Mostly Cloudy
5:00 PM 77.0 °F - 69.8 °F 78% 29.98 in 6.2 mi SW 10.4 mph - N/A   Mostly Cloudy
6:00 PM 73 °F - 70 °F 87% 29.83 in 12 mi West 9.2 mph - - Fog Light Fog
6:00 PM 73.4 °F - 69.8 °F 88% 29.99 in 6.2 mi West 9.2 mph - N/A   Mostly Cloudy
7:00 PM 71.6 °F - 69.8 °F 94% 30.01 in 6.2 mi WSW 4.6 mph - N/A   Scattered Clouds
8:00 PM 71.6 °F - 69.8 °F 94% 30.04 in 6.2 mi SE 1.2 mph - N/A   Scattered Clouds
9:00 PM 70 °F - 70 °F 99% 29.88 in 12 mi East 2.3 mph - -   Scattered Clouds
9:00 PM 69.8 °F - 69.8 °F 100% 30.05 in 6.2 mi East 2.3 mph - N/A   Partly Cloudy
10:00 PM 71.6 °F - 68.0 °F 88% 30.06 in 6.2 mi NE 2.3 mph - N/A   Partly Cloudy
11:00 PM 69.8 °F - 68.0 °F 94% 30.06 in 6.2 mi SSW 3.5 mph - N/A   Scattered Clouds